Weather History for KTRK - September, 2013

Change the Weather History Date:

Tuesday, September 17, 2013

  Actual Average Record
Temperature  
Mean Temperature 49 °F -  
Max Temperature 66 °F 72 °F 86 °F (1981)
Min Temperature 32 °F 34 °F 24 °F (1973)
Degree Days  
Heating Degree Days 16    
Moisture  
Dew Point 32 °F    
Average Humidity 46    
Maximum Humidity 80    
Minimum Humidity 15    
Precipitation  
Precipitation 0.00 in - - ()
Sea Level Pressure  
Sea Level Pressure 29.99 in    
Wind  
Wind Speed 7 mph (SW)    
Max Wind Speed 20 mph    
Max Gust Speed 30 mph    
Visibility 10 miles    
Events      
Averages and records for this station are not official NWS values.
T = Trace of Precipitation, MM = Missing Value Source: NWS Daily Summary

Daily Weather History Graph

Daily Weather History Graph

Search for Another Location

Airport or City:

Trip Planner

Search our weather history database for the weather conditions in past years. The results will help you decide how hot, cold, wet, or windy it might be!

Date:

Astronomy

Sep. 17, 2013 Rise Set
Actual Time 6:43 AM PDT 7:05 PM PDT
Civil Twilight 6:17 AM PDT 7:31 PM PDT
Nautical Twilight 5:45 AM PDT 8:03 PM PDT
Astronomical Twilight 5:13 AM PDT 8:35 PM PDT
Moon 5:55 PM PDT (9/17) 4:44 AM PDT (9/17)
Length of Visible Light 13h 14m
Length of Day
12h 21m
Waxing Gibbous, 96% of the Moon is Illuminated
Sep 17
Waxing Gibbous
Sep 19
Full
Sep 26
Last Quarter
Oct 4
New
Oct 11
First Quarter

Hourly Weather History & Observations

Time (PDT) Temp. Windchill Dew Point Humidity Pressure Visibility Wind Dir Wind Speed Gust Speed Precip Events Conditions
12:15 AM 53.6 °F - 37.4 °F 54% 30.01 in 10.0 mi Calm Calm - N/A   Clear
12:35 AM 55.4 °F - 33.8 °F 44% 30.01 in 10.0 mi West 3.5 mph - N/A   Clear
12:55 AM 57.2 °F - 32.0 °F 38% 30.01 in 10.0 mi SW 3.5 mph - N/A   Clear
1:15 AM 57.2 °F - 32.0 °F 38% 30.00 in 10.0 mi SSW 8.1 mph - N/A   Clear
1:35 AM 59.0 °F - 32.0 °F 36% 30.00 in 10.0 mi WSW 8.1 mph 20.7 mph N/A   Clear
1:55 AM 57.2 °F - 32.0 °F 38% 29.99 in 10.0 mi SSW 8.1 mph - N/A   Clear
2:15 AM 57.2 °F - 32.0 °F 38% 29.99 in 10.0 mi Calm Calm - N/A   Clear
2:35 AM 57.2 °F - 32.0 °F 38% 29.99 in 10.0 mi SSE 5.8 mph - N/A   Clear
2:55 AM 55.4 °F - 33.8 °F 44% 29.98 in 10.0 mi SW 3.5 mph - N/A   Clear
3:15 AM 55.4 °F - 35.6 °F 47% 29.97 in 10.0 mi SW 4.6 mph - N/A   Clear
3:35 AM 55.4 °F - 35.6 °F 47% 29.96 in 10.0 mi SW 8.1 mph 18.4 mph N/A   Clear
3:55 AM 55.4 °F - 35.6 °F 47% 29.95 in 10.0 mi SW 9.2 mph 18.4 mph N/A   Clear
4:15 AM 55.4 °F - 37.4 °F 51% 29.95 in 10.0 mi SW 15.0 mph 20.7 mph N/A   Clear
4:35 AM 55.4 °F - 37.4 °F 51% 29.94 in 10.0 mi SW 10.4 mph 18.4 mph N/A   Clear
4:55 AM 55.4 °F - 37.4 °F 51% 29.94 in 10.0 mi SW 12.7 mph 18.4 mph N/A   Clear
5:15 AM 55.4 °F - 39.2 °F 54% 29.94 in 10.0 mi SSW 15.0 mph 18.4 mph N/A   Clear
5:35 AM 55.4 °F - 37.4 °F 51% 29.94 in 10.0 mi SW 13.8 mph 20.7 mph N/A   Clear
5:55 AM 55.4 °F - 39.2 °F 54% 29.94 in 10.0 mi WSW 10.4 mph 18.4 mph N/A   Clear
6:15 AM 55.4 °F - 37.4 °F 51% 29.94 in 10.0 mi SSW 13.8 mph 21.9 mph N/A   Clear
6:35 AM 55.4 °F - 37.4 °F 51% 29.94 in 10.0 mi South 10.4 mph 19.6 mph N/A   Clear
6:55 AM 55.4 °F - 37.4 °F 51% 29.94 in 10.0 mi South 10.4 mph 19.6 mph N/A   Scattered Clouds
7:45 AM 57.2 °F - 37.4 °F 48% 29.94 in 10.0 mi SW 15.0 mph 21.9 mph N/A   Scattered Clouds
8:45 AM 59.0 °F - 37.4 °F 45% 29.94 in 10.0 mi SW 10.4 mph 26.5 mph N/A   Scattered Clouds
9:45 AM 60.8 °F - 35.6 °F 39% 29.94 in 10.0 mi South 18.4 mph 28.8 mph N/A   Partly Cloudy
10:55 AM 64.4 °F - 32.0 °F 30% 29.94 in 10.0 mi SW 17.3 mph 27.6 mph N/A   Partly Cloudy
11:45 AM 64.4 °F - 28.4 °F 26% 29.94 in 10.0 mi South 9.2 mph 26.5 mph N/A   Scattered Clouds
12:55 PM 66.2 °F - 26.6 °F 23% 29.93 in 10.0 mi SW 10.4 mph 29.9 mph N/A   Scattered Clouds
1:55 PM 64.4 °F - 19.4 °F 18% 29.92 in 10.0 mi South 19.6 mph 28.8 mph N/A   Partly Cloudy
2:45 PM 66.2 °F - 17.6 °F 15% 29.93 in 10.0 mi WSW 13.8 mph 26.5 mph N/A   Clear
3:55 PM 62.6 °F - 24.8 °F 24% 29.94 in 10.0 mi WSW 16.1 mph 29.9 mph N/A   Partly Cloudy
4:45 PM 60.8 °F - 26.6 °F 27% 29.97 in 10.0 mi SW 12.7 mph 21.9 mph N/A   Partly Cloudy
5:45 PM 59.0 °F - 26.6 °F 29% 29.98 in 10.0 mi WSW 13.8 mph 23.0 mph N/A   Partly Cloudy
5:55 PM 57.2 °F - 28.4 °F 33% 29.98 in 10.0 mi WSW 16.1 mph 20.7 mph N/A   Clear
6:15 PM 57.2 °F - 28.4 °F 33% 29.99 in 10.0 mi SW 9.2 mph 16.1 mph N/A   Clear
6:35 PM 55.4 °F - 32.0 °F 41% 30.00 in 10.0 mi West 8.1 mph - N/A   Clear
6:55 PM 53.6 °F - 32.0 °F 44% 30.01 in 10.0 mi SW 9.2 mph 16.1 mph N/A   Clear
7:15 PM 53.6 °F - 30.2 °F 41% 30.01 in 10.0 mi WSW 8.1 mph - N/A   Clear
7:35 PM 51.8 °F - 32.0 °F 47% 30.02 in 10.0 mi West 6.9 mph - N/A   Clear
7:55 PM 50.0 °F - 32.0 °F 50% 30.03 in 10.0 mi Calm Calm - N/A   Clear
8:15 PM 50.0 °F - 32.0 °F 50% 30.04 in 10.0 mi NW 3.5 mph - N/A   Clear
8:35 PM 50.0 °F - 32.0 °F 50% 30.04 in 10.0 mi West 6.9 mph - N/A   Clear
8:55 PM 42.8 °F 40.1 °F 30.2 °F 61% 30.05 in 10.0 mi ESE 4.6 mph - N/A   Clear
9:15 PM 42.8 °F - 30.2 °F 61% 30.05 in 10.0 mi Calm Calm - N/A   Clear
9:35 PM 41.0 °F 39.0 °F 28.4 °F 61% 30.06 in 10.0 mi South 3.5 mph - N/A   Clear
9:55 PM 39.2 °F 35.0 °F 26.6 °F 61% 30.06 in 10.0 mi SSE 5.8 mph - N/A   Clear
10:15 PM 35.6 °F - 26.6 °F 70% 30.07 in 10.0 mi Calm Calm - N/A   Clear
10:35 PM 37.4 °F 33.8 °F 26.6 °F 65% 30.07 in 10.0 mi South 4.6 mph - N/A   Clear
10:55 PM 35.6 °F - 26.6 °F 70% 30.07 in 10.0 mi Calm Calm - N/A   Clear
11:15 PM 39.2 °F - 28.4 °F 65% 30.07 in 10.0 mi Calm Calm - N/A   Clear
11:35 PM 32.0 °F - 26.6 °F 80% 30.08 in 10.0 mi Calm Calm - N/A   Clear
11:55 PM 35.6 °F 32.8 °F 28.4 °F 75% 30.08 in 10.0 mi South 3.5 mph - N/A   Clear